This is the latest recevied weather packets stored in our database for station/object lw9ero. If no packets are shown the sender has not sent any weather packets the latest 10 day(s).
| Time | Temp. | Humidity | Pressure | Rain* | Wind** | Luminosity | Snow |
|---|---|---|---|---|---|---|---|
| 1777438525 | 13.89° C | 76% | 1012.5 hPa | 0 mm | - | 8 W/m² | - |
| 1777437921 | 13.89° C | 77% | 1012.4 hPa | 0 mm | - | 8 W/m² | - |
| 1777437315 | 13.89° C | 77% | 1012.3 hPa | 0 mm | - | 8 W/m² | - |
| 1777436707 | 13.89° C | 77% | 1012.6 hPa | 0 mm | - | 191 W/m² | - |
| 1777436101 | 13.89° C | 78% | 1012.8 hPa | 0 mm | - | 191 W/m² | - |
| 1777435495 | 13.89° C | 78% | 1013 hPa | 0 mm | - | 191 W/m² | - |
| 1777434888 | 13.89° C | 78% | 1012.8 hPa | 0 mm | - | 300 W/m² | - |
| 1777434282 | 13.89° C | 77% | 1013.2 hPa | 0 mm | - | 300 W/m² | - |
| 1777433676 | 13.89° C | 76% | 1013.2 hPa | 0 mm | - | 300 W/m² | - |
| 1777433070 | 13.89° C | 77% | 1013 hPa | 0 mm | - | 410 W/m² | - |
| 1777432463 | 13.33° C | 78% | 1013.2 hPa | 0 mm | - | 410 W/m² | - |
| 1777431859 | 12.78° C | 78% | 1013.2 hPa | 0 mm | - | 410 W/m² | - |
| 1777431251 | 13.33° C | 78% | 1013.2 hPa | 0 mm | - | 483 W/m² | - |
| 1777430645 | 13.33° C | 77% | 1013.5 hPa | 0 mm | - | 483 W/m² | - |
| 1777430039 | 13.89° C | 76% | 1013.4 hPa | 0 mm | - | 483 W/m² | - |
| 1777429433 | 13.89° C | 76% | 1013.2 hPa | 0 mm | - | 593 W/m² | - |
| 1777428827 | 13.89° C | 76% | 1013.5 hPa | 0 mm | - | 593 W/m² | - |
| 1777428220 | 13.33° C | 78% | 1013.5 hPa | 0 mm | - | 593 W/m² | - |
| 1777427617 | 13.33° C | 80% | 1013.2 hPa | 0 mm | - | 666 W/m² | - |
| 1777427008 | 13.33° C | 79% | 1013.2 hPa | 0 mm | - | 666 W/m² | - |
| 1777426403 | 13.33° C | 79% | 1013 hPa | 0 mm | - | 666 W/m² | - |
| 1777425801 | 13.89° C | 78% | 1013 hPa | 0 mm | - | 775 W/m² | - |
| 1777425189 | 13.89° C | 77% | 1012.9 hPa | 0 mm | - | 775 W/m² | - |
| 1777424584 | 14.44° C | 76% | 1012.8 hPa | 0 mm | - | 775 W/m² | - |
| 1777423980 | 14.44° C | 75% | 1012.8 hPa | 0 mm | - | 1031 W/m² | - |
* Rain latest hour (hover to see other rain measurements)
** Current wind speed in m/s (hover to see current wind gust speed)